Terminal Aerodrome Forecast
Issued by NWS

Home | Current Version | Previous Version | Text Only | Print | Product List | Glossary On
Versions: 1 2 3 4 5 6 7 8 9 10 11 12 13 14 15 16 17 18 19 20 21 22 23 24 25
000
FTUS46 KSGX 231700
TAFSAN
TAF
KSAN 231720Z 2318/2424 VRB05KT P6SM BKN250 WS015/01025KT
     FM232000 30009KT P6SM SCT250
     FM240100 VRB04KT P6SM FEW250
     FM242000 30009KT P6SM FEW250=

USA.gov is the U.S. government's official web portal to all federal, state and local government web resources and services.